Location: Unspecified
(0.0000°N, 0.0000°E)
Time: 13:53:06
(UTC+00:00)

JUGNU - Pass Details

Date: 17 February 2020
Orbit: 836 x 864 km, 20.0° (Epoch: 01 April)

Event Time Altitude Azimuth Distance (km) Brightness Sun altitude
Rises 20:46:35 0° 299° (WNW) 3,363 ? -37.2°
Reaches altitude 10° 20:49:11 10° 303° (WNW) 2,431 ? -37.8°
Enters shadow 20:50:26 17° 307° (NW) 1,997 ? -38.1°
